User: anonymous   Login
Location: Balaclava NSW 2575, Australia
(34.4510°S, 150.4953°E)
Time: 11:53:11
(UTC+10:00)
Language:

XW-2C - Orbit

View from above orbital plane
View from above orbital plane
View from above satellite
View from above satellite

Ground track
Ground track

The orbit data is extracted from the following two-line orbital elements,

1 40906U 15049H   21216.46764044  .00001181  00000-0  63301-4 0  9993
2 40906  97.4866 218.2233 0015282  27.4435 132.0633 15.16852797324845
Epoch (UTC): 04 August 2021 11:13:24
Eccentricity: 0.0015282
inclination: 97.4866°
perigee height: 505 km
apogee height: 526 km
right ascension of ascending node: 218.2233°
argument of perigee: 27.4435°
revolutions per day: 15.16852797
mean anomaly at epoch: 132.0633°
orbit number at epoch: 32484

The dashed part of the orbit path shows where the satellite is in the earth's shadow,  

DLR